Regional Weather Roundup
Issued by NWS

Home | Current Version | Previous Version | Graphics & Text | Print | Product List | Glossary On
Versions: 1 2 3 4 5 6 7 8 9 10 11 12 13 14 15 16 17 18 19 20 21 22 23 24 25 26 27 28 29 30 31 32 33 34 35 36 37 38 39 40 41 42 43 44 45 46 47 48 49 50
000
ASUS43 KBIS 292120
RWRND

NORTH DAKOTA REGIONAL WEATHER ROUNDUP
NATIONAL WEATHER SERVICE BISMARCK ND
300 PM CST THU JAN 29 2015

NOTE: "FAIR" INDICATES FEW OR NO CLOUDS BELOW 12,000 FEET WITH NO
SIGNIFICANT WEATHER AND/OR OBSTRUCTIONS TO VISIBILITY.


NDZ001>003-009>011-017-292200-
NORTHWEST NORTH DAKOTA

CITY           SKY/WX    TMP DP  RH WIND       PRES   REMARKS
WILLISTON      MOSUNNY   30  19  63 CALM      30.41F
MINOT          CLOUDY    19  11  70 N5        30.46F HAZE    WCI  12
MINOT AFB      CLOUDY    17  14  86 N3        30.47F
$$

NDZ018>021-031>035-040>046-292200-
SOUTHWEST NORTH DAKOTA

CITY           SKY/WX    TMP DP  RH WIND       PRES   REMARKS
BISMARCK       MOSUNNY   29  18  63 N7        30.47F
DICKINSON      SUNNY     37  20  50 W3        30.37F
GARRISON         N/A     25  18  74 N6        30.43F WCI  18
HETTINGER ARPT SUNNY     40  15  36 NW7       30.40F
$$

NDZ004>008-012>016-024-026-027-054-292200-
NORTHEAST NORTH DAKOTA

CITY           SKY/WX    TMP DP  RH WIND       PRES   REMARKS
GRAND FORKS    MOSUNNY   14   4  64 N18       30.54R WCI  -3
GRND FRKS AFB  MOSUNNY   14   3  62 N13       30.53S WCI   0
DEVILS LAKE    CLOUDY    14   7  73 NW12      30.49S WCI   0
$$

NDZ022-023-025-028>030-036>039-047>053-292200-
SOUTHEAST NORTH DAKOTA

CITY           SKY/WX    TMP DP  RH WIND       PRES   REMARKS
FARGO          FLURRIES  18   8  65 NW20      30.51R WCI   2
JAMESTOWN      CLOUDY    19  11  70 NW15      30.48S WCI   5
$$



USA.gov is the U.S. government's official web portal to all federal, state and local government web resources and services.